Hourly Weather Suhie Avrali

Today, 17 January, Sunday

Time Temperature Precipitation Wind Pressure Humidity
00:00 -14°C° 0.2 mm 6 mps 738 mmHg 92%
01:00 -15°C° 0.3 mm 6 mps 739 mmHg 93%
02:00 -15°C° 0.3 mm 6 mps 739 mmHg 93%
03:00 -16°C° 0 mm 6 mps 739 mmHg 94%
04:00 -16°C° 0.3 mm 6 mps 739 mmHg 93%
05:00 -17°C° 0.3 mm 6 mps 740 mmHg 93%
06:00 -18°C° 0.3 mm 6 mps 740 mmHg 92%
07:00 -20°C° 0 mm 6 mps 741 mmHg 92%
08:00 -20°C° 0 mm 5 mps 741 mmHg 91%
09:00 -21°C° 0 mm 5 mps 742 mmHg 90%
10:00 -21°C° 0 mm 5 mps 742 mmHg 90%
11:00 -20°C° 0 mm 4 mps 743 mmHg 90%
12:00 -20°C° 0 mm 4 mps 743 mmHg 90%
13:00 -22°C° 0 mm 4 mps 744 mmHg 91%
14:00 -21°C° 0 mm 3 mps 744 mmHg 92%
15:00 -19°C° 0 mm 2 mps 744 mmHg 95%
16:00 -20°C° 0 mm 2 mps 745 mmHg 95%
17:00 -21°C° 0 mm 2 mps 746 mmHg 95%
18:00 -21°C° 0 mm 2 mps 747 mmHg 95%
19:00 -23°C° 0 mm 2 mps 747 mmHg 96%
20:00 -23°C° 0 mm 2 mps 747 mmHg 96%
21:00 -21°C° 0 mm 1 mps 748 mmHg 97%
22:00 -22°C° 0 mm 1 mps 748 mmHg 97%
23:00 -22°C° 0 mm 1 mps 748 mmHg 98%

Tomorrow, 18 January, Monday

Time Temperature Precipitation Wind Pressure Humidity
00:00 -23°C° 0 mm 0 mps 749 mmHg 99%
01:00 -23°C° 0 mm 0 mps 749 mmHg 99%
02:00 -24°C° 0 mm 0 mps 749 mmHg 99%
03:00 -24°C° 0 mm 0 mps 750 mmHg 99%
04:00 -24°C° 0 mm 0 mps 750 mmHg 99%
05:00 -24°C° 0 mm 0 mps 750 mmHg 99%
06:00 -24°C° 0 mm 0 mps 750 mmHg 99%
07:00 -24°C° 0 mm 0 mps 750 mmHg 98%
08:00 -24°C° 0 mm 1 mps 750 mmHg 97%
09:00 -24°C° 0 mm 1 mps 751 mmHg 97%
10:00 -22°C° 0 mm 1 mps 751 mmHg 96%
11:00 -21°C° 0 mm 1 mps 751 mmHg 95%
12:00 -20°C° 0 mm 1 mps 751 mmHg 94%
13:00 -20°C° 0 mm 1 mps 750 mmHg 94%
14:00 -21°C° 0 mm 1 mps 750 mmHg 95%
15:00 -21°C° 0 mm 1 mps 750 mmHg 95%
16:00 -21°C° 0 mm 1 mps 750 mmHg 94%
17:00 -23°C° 0 mm 2 mps 750 mmHg 94%
18:00 -23°C° 0 mm 2 mps 750 mmHg 94%
19:00 -23°C° 0.1 mm 2 mps 749 mmHg 94%
20:00 -21°C° 0.1 mm 2 mps 749 mmHg 95%
21:00 -20°C° 0.1 mm 2 mps 749 mmHg 95%
22:00 -20°C° 0.2 mm 2 mps 749 mmHg 95%
23:00 -20°C° 0.2 mm 2 mps 748 mmHg 96%

Day after tomorrow, 19 January, Tuesday

Time Temperature Precipitation Wind Pressure Humidity
00:00 -20°C° 0.2 mm 2 mps 748 mmHg 97%
01:00 -22°C° 0.3 mm 3 mps 748 mmHg 96%
02:00 -21°C° 0.3 mm 3 mps 747 mmHg 96%
03:00 -21°C° 0.3 mm 3 mps 747 mmHg 96%
04:00 -21°C° 0.3 mm 3 mps 747 mmHg 96%
05:00 -21°C° 0.3 mm 3 mps 747 mmHg 96%
06:00 -21°C° 0.3 mm 3 mps 746 mmHg 96%
07:00 -21°C° 0.1 mm 3 mps 746 mmHg 96%
08:00 -21°C° 0.1 mm 3 mps 746 mmHg 96%
09:00 -21°C° 0.1 mm 3 mps 746 mmHg 95%
10:00 -21°C° 0 mm 3 mps 746 mmHg 95%
11:00 -21°C° 0 mm 3 mps 746 mmHg 95%
12:00 -18°C° 0 mm 2 mps 746 mmHg 95%
13:00 -19°C° 0 mm 2 mps 746 mmHg 95%
14:00 -19°C° 0 mm 2 mps 746 mmHg 96%
15:00 -19°C° 0 mm 2 mps 745 mmHg 96%
16:00 -20°C° 0 mm 2 mps 746 mmHg 97%
17:00 -21°C° 0 mm 2 mps 746 mmHg 97%
18:00 -23°C° 0 mm 2 mps 746 mmHg 98%
19:00 -23°C° 0 mm 2 mps 746 mmHg 98%
20:00 -23°C° 0 mm 2 mps 746 mmHg 98%
21:00 -24°C° 0 mm 2 mps 746 mmHg 98%
22:00 -24°C° 0 mm 2 mps 746 mmHg 98%
23:00 -24°C° 0 mm 2 mps 746 mmHg 98%

20 January, Wednesday

Time Temperature Precipitation Wind Pressure Humidity
00:00 -24°C° 0 mm 2 mps 746 mmHg 98%
01:00 -24°C° 0 mm 2 mps 746 mmHg 98%
02:00 -24°C° 0 mm 2 mps 746 mmHg 98%
03:00 -24°C° 0 mm 2 mps 746 mmHg 97%
04:00 -24°C° 0 mm 2 mps 746 mmHg 97%
05:00 -24°C° 0 mm 2 mps 746 mmHg 97%
06:00 -24°C° 0 mm 2 mps 746 mmHg 98%
07:00 -23°C° 0 mm 2 mps 746 mmHg 97%
08:00 -24°C° 0 mm 3 mps 747 mmHg 97%
09:00 -24°C° 0 mm 3 mps 747 mmHg 97%
10:00 -23°C° 0 mm 3 mps 747 mmHg 96%
11:00 -23°C° 0 mm 3 mps 747 mmHg 95%
12:00 -22°C° 0 mm 3 mps 747 mmHg 94%
13:00 -22°C° 0.1 mm 3 mps 747 mmHg 94%
14:00 -22°C° 0.1 mm 3 mps 747 mmHg 94%
15:00 -22°C° 0.1 mm 3 mps 747 mmHg 95%
16:00 -22°C° 0 mm 3 mps 748 mmHg 95%
17:00 -22°C° 0 mm 3 mps 748 mmHg 95%
18:00 -22°C° 0 mm 3 mps 748 mmHg 96%
19:00 -21°C° 0 mm 3 mps 748 mmHg 95%
20:00 -21°C° 0 mm 3 mps 749 mmHg 95%
21:00 -21°C° 0 mm 3 mps 749 mmHg 95%
22:00 -21°C° 0 mm 3 mps 749 mmHg 96%
23:00 -22°C° 0 mm 3 mps 750 mmHg 96%

21 January, Thursday

Time Temperature Precipitation Wind Pressure Humidity
00:00 -22°C° 0 mm 3 mps 750 mmHg 96%
01:00 -22°C° 0 mm 3 mps 750 mmHg 96%
02:00 -22°C° 0 mm 3 mps 750 mmHg 97%
03:00 -23°C° 0 mm 3 mps 750 mmHg 97%
04:00 -22°C° 0 mm 3 mps 751 mmHg 97%
05:00 -22°C° 0 mm 3 mps 751 mmHg 96%
06:00 -22°C° 0 mm 3 mps 751 mmHg 96%
07:00 -22°C° 0 mm 3 mps 751 mmHg 96%
08:00 -22°C° 0 mm 3 mps 752 mmHg 96%
09:00 -22°C° 0 mm 3 mps 752 mmHg 96%
10:00 -21°C° 0 mm 3 mps 752 mmHg 95%
11:00 -20°C° 0 mm 4 mps 752 mmHg 95%
12:00 -19°C° 0 mm 4 mps 752 mmHg 94%
13:00 -18°C° 0 mm 3 mps 752 mmHg 94%
14:00 -18°C° 0 mm 3 mps 752 mmHg 94%
15:00 -19°C° 0 mm 3 mps 752 mmHg 95%
16:00 -18°C° 0 mm 3 mps 752 mmHg 94%
17:00 -19°C° 0 mm 4 mps 752 mmHg 94%
18:00 -19°C° 0 mm 4 mps 752 mmHg 94%
19:00 -19°C° 0 mm 4 mps 752 mmHg 93%
20:00 -19°C° 0 mm 4 mps 751 mmHg 93%
21:00 -20°C° 0 mm 5 mps 751 mmHg 92%
22:00 -20°C° 0 mm 5 mps 750 mmHg 90%
23:00 -20°C° 0 mm 6 mps 750 mmHg 89%

22 January, Friday

Time Temperature Precipitation Wind Pressure Humidity
00:00 -20°C° 0 mm 7 mps 749 mmHg 87%
01:00 -20°C° 0.4 mm 7 mps 748 mmHg 89%
02:00 -19°C° 0.4 mm 8 mps 747 mmHg 91%
03:00 -20°C° 0.4 mm 9 mps 746 mmHg 93%
04:00 -19°C° 0.5 mm 9 mps 746 mmHg 93%
05:00 -17°C° 0.5 mm 9 mps 745 mmHg 92%
06:00 -15°C° 0.5 mm 8 mps 744 mmHg 92%
07:00 -15°C° 0.7 mm 8 mps 744 mmHg 92%
08:00 -13°C° 0.7 mm 8 mps 744 mmHg 93%
09:00 -12°C° 0.7 mm 8 mps 744 mmHg 93%
10:00 -10°C° 0.4 mm 8 mps 743 mmHg 94%
11:00 -7°C° 0.4 mm 8 mps 743 mmHg 95%
12:00 -5°C° 0.4 mm 8 mps 743 mmHg 95%
13:00 -4°C° 0.4 mm 8 mps 743 mmHg 96%
14:00 -3°C° 0.4 mm 7 mps 742 mmHg 98%
15:00 -2°C° 0.4 mm 7 mps 742 mmHg 99%
16:00 -2°C° 0.3 mm 7 mps 743 mmHg 98%
17:00 -2°C° 0.3 mm 7 mps 743 mmHg 98%
18:00 -2°C° 0.3 mm 6 mps 744 mmHg 98%
19:00 -2°C° 0.2 mm 6 mps 744 mmHg 98%
20:00 -1°C° 0.2 mm 5 mps 745 mmHg 98%
21:00 -1°C° 0.2 mm 5 mps 745 mmHg 98%
22:00 -2°C° 0.1 mm 4 mps 746 mmHg 98%
23:00 -2°C° 0.1 mm 4 mps 746 mmHg 98%
Show more